SCP
0 0 0 0 0 0 0 0 0 0 0 0 0 0 0 0 0 0 0 0 0 0 0 0 0 0 0 0 0 0 0 0 0 0 0 0 0 0
0 0 0 0 0 0 0 0 0 0 0 0 0 0 0 0 0 0 0 0 0 0 0 0 0 0 0 0 0 0 0 0 0 0 0 0 0 0
0 0 0 0 0 0 0 0 0 0 0 0 0 0 0 0 0 0 0 0 0 0 0 0 0 0 0 0 0 0 0 0 0 0 0 0 0 0
0 0 0 0 0 0 0 0 0 0 0 0 0 0 0 0 0 0 0 0 0 0 0 0 0 0 0 0 0 0 0 0 0 0 0 0 0 0
0 0 0 0 0 0 0 0 0 0 0 0 0 0 0 0 0 0 0 0 0 0 0 0 0 0 0 0 0 0 0 0 0 0 0 0 0 0
0 0 0 0 0 0 0 0 0 0 0 0 0 0 0 0 0 0 0 0 0 0 0 0 0 0 0 0 0 0 0 0 0 0 0 0 0 0
0 0 0 0 0 0 0 0 0 0 0 0 0 0 0 0 0 0 0 0 0 0 0 0 0 0 0 0 0 0 0 0 0 0 0 0 0 0
0 0 0 0 0 0 0 0 0 0 0 0 0 0 0 0 0 0 0 0 0 0 0 0 0 0 0 0 0 0 0 0 0 0 0 0 0 0
0 0 0 0 0 0 0 0 0 0 0 0 0 0 0 0 0 0 0 0 0 0 0 0 0 0 0 0 0 0 0 0 0 0 0 0 0 0
0 0 0 0 0 0 0 0 0 0 0 0 0 0 0 0 0 0 0 0 0 0 0 0 0 0 0 0 0 0 0 0 0 0 0 0 0 0
0 0 0 0 0 0 0 0 0 0 0 0 0 0 0 0 0 0 0 0 0 0 0 0 0 0 0 0 0 0 0 0 0 0 0 0 0 0
0 0 0 0 0 0 0 0 0 0 0 0 0 0 0 0 0 0 0 0 0 0 0 0 0 0 0 0 0 0 0 0 0 0 0 0 0 0
0 0 0 0 0 0 0 0 0 0 0 0 0 0 0 0 0 0 0 0 0 0 0 0 0 0 0 0 0 0 0 0 0 0 0 0 0 0
0 0 0 0 0 0 0 0 0 0 0 0 0 0 0 0 0 0 0 0 0 0 0 0 0 0 0 0 0 0 0 0 0 0 0 0 0 0
0 0 0 0 0 0 0 0 0 0 0 0 0 0 0 0 0 0 0 0 0 0 0 0 0 0 0 0 0 0 0 0 0 0 0 0 0 0
0 0 0 0 0 0 0 0 0 0 0 0 0 0 0 -0 -0 0 0 0 0 0 0 0 0 0 0 0 0 0 0 0 0 0 0 0 0 0
0 0 0 0 0 0 0 0 0 0 0 0 0 0 0 0 0 0 0 0 0 0 0 0 0 0 0 0 0 0 0 0 0 0 0 0 0 0
0 0 0 0 0 0 0 0 0 0 0 0 0 0 0 0 0 0 0 0 0 0 0 0 0 0 0 0 0 0 0 0 0 0 0 0 0 0
0 0 0 0 0 0 0 0 0 0 0 0 0 0 0 0 0 0 0 0 0 0 0 0 0 0 0 0 0 0 0 0 0 0 0 0 0 0
0 0 0 0 0 0 0 0 0 0 0 0 0 0 0 0 0 0 0 0 0 0 0 0 0 0 0 0 0 0 0 0 0 0 0 0 0 0
0 0 0 0 0 0 0 0 0 0 0 0 0 0 0 0 0 0 0 0 0 0 0 0 0 0 0 0 0 0 0 0 0 0 0 0 0 0
0 0 0 0 0 0 0 0 0 0 0 0 0 0 0 0 0 0 0 0 0 0 0 0 0 0 0 0 0 0 0 0 0 0 0 0 0 0
0 0 0 0 0 0 0 0 0 0 0 0 0 0 0 0 0 0 0 0 0 0 0 0 0 0 0 0 0 0 0 0 0 0 0 0 0 0
Wind_Speed_500mb
47 50 50 49 46 55 59 60 59 54 62 54 55 49 46 45 41 39 39 36 41 40 46 58 72 81 65 47 71 59 57 52 43 32 36 45 48 49
58 54 52 51 51 53 56 61 56 53 63 59 55 49 40 42 39 45 43 40 38 41 36 54 85 62 70 70 71 64 64 55 46 41 49 44 46 40
57 53 52 54 56 56 59 55 55 54 59 61 58 38 41 36 44 43 50 51 48 44 42 51 91 82 64 70 82 75 55 48 40 45 31 43 45 44
55 56 60 60 56 52 53 54 51 58 52 52 50 51 40 43 43 48 45 43 41 40 45 47 70 94 77 85 79 73 63 49 54 49 45 39 42 58
58 58 59 56 56 53 42 49 54 58 51 38 39 35 48 52 52 51 47 40 42 34 30 42 71 77 93 90 87 74 63 55 57 56 56 50 58 60
55 57 58 59 51 44 41 48 42 36 36 37 42 50 54 52 50 42 36 45 34 35 33 68 75 77 71 70 69 64 67 66 56 62 57 59 62 61
51 46 41 38 34 35 37 33 37 42 30 38 44 47 52 49 37 33 35 41 51 56 82 73 69 68 56 61 56 69 64 65 62 65 57 52 56 51
43 37 37 34 30 35 34 35 36 34 39 39 46 48 46 31 27 26 42 50 58 71 79 69 68 53 51 59 68 74 74 55 59 63 53 49 52 48
40 41 42 29 29 30 33 37 35 41 36 39 44 43 31 26 22 26 42 56 63 68 69 70 66 64 62 63 58 75 78 64 61 58 51 47 51 49
40 32 32 29 27 28 34 42 40 36 32 37 40 31 31 28 21 23 48 68 67 65 74 73 66 74 70 60 57 56 63 69 65 49 37 45 49 46
37 35 31 32 26 26 31 35 35 29 34 34 24 27 26 27 27 30 55 71 70 70 72 87 71 69 57 63 54 48 50 50 43 35 35 47 48 46
37 37 36 29 25 26 26 26 27 27 30 19 20 23 23 24 23 26 48 73 77 66 67 76 78 75 59 61 61 61 58 48 39 38 47 50 50 48
33 29 30 28 30 30 29 30 30 30 24 16 17 17 16 16 20 32 46 70 76 64 78 81 85 76 54 71 64 63 62 58 49 46 47 45 44 43
27 23 24 26 25 29 31 32 33 28 20 17 15 15 17 20 28 38 54 64 69 65 72 75 88 80 75 80 71 64 61 53 53 56 54 51 45 45
24 25 33 28 21 23 25 31 27 23 21 20 17 16 21 26 32 37 50 55 57 58 68 73 70 78 72 77 80 74 67 60 60 61 60 58 57 58
24 28 31 24 21 23 24 27 25 20 20 21 19 22 27 33 38 39 49 50 51 45 57 59 57 61 67 51 58 76 75 66 72 69 63 58 56 56
23 21 20 17 19 26 33 29 28 25 23 24 24 31 39 46 41 40 42 44 46 49 49 48 40 34 39 45 45 57 79 77 65 76 67 63 61 61
17 14 15 15 15 22 33 31 32 26 25 27 30 36 45 53 54 49 43 45 48 52 51 49 44 42 37 35 30 45 65 70 62 65 67 64 66 66
10 11 13 15 16 19 28 30 31 27 21 26 34 40 47 53 62 59 52 51 48 46 47 53 58 57 54 50 43 34 34 55 57 53 67 64 65 64
13 12 13 14 16 20 23 28 30 28 28 28 33 41 48 52 61 64 65 59 52 48 50 55 64 66 62 56 52 48 40 35 52 55 58 63 57 49
7 13 13 13 17 19 24 27 30 31 30 31 32 37 47 53 59 64 65 64 56 53 56 58 58 59 53 40 37 42 41 36 28 40 47 52 57 55
11 12 11 12 14 15 18 23 30 35 32 32 29 32 40 49 59 65 67 71 66 59 54 55 52 57 62 53 44 36 43 39 33 25 28 30 45 58
14 12 13 13 12 15 19 22 26 32 33 32 31 30 35 43 50 58 66 70 71 66 61 55 58 59 64 59 52 44 43 47 44 40 36 31 24 25
Wind_Direction_500mb
291 296 300 299 291 279 270 283 278 290 291 292 288 282 275 276 271 291 290 278 271 265 252 246 229 228 228 191 195 198 184 180 176 173 183 178 167 165
296 300 299 298 289 278 275 283 279 276 282 287 286 282 274 262 276 290 290 285 279 257 251 244 231 236 199 190 194 192 185 175 162 164 169 174 169 168
289 290 287 284 284 282 285 287 279 279 276 278 276 280 270 293 291 274 272 276 269 256 252 234 229 213 194 198 193 187 183 191 187 182 190 187 202 194
283 282 284 279 281 283 289 295 279 285 281 266 265 283 288 295 289 285 279 271 267 255 243 230 229 205 194 194 183 187 180 178 177 170 175 172 169 161
284 282 279 282 287 290 287 290 286 284 276 282 296 282 289 293 291 290 284 271 264 257 238 225 215 195 185 188 184 183 187 184 174 171 168 167 169 163
282 281 283 288 288 283 279 279 279 267 270 289 288 292 289 294 299 291 272 276 258 256 239 211 177 173 170 174 189 193 184 175 175 177 177 174 175 174
287 293 288 290 287 285 278 274 260 276 279 279 287 293 293 295 286 280 263 258 239 211 177 170 176 178 193 203 187 178 177 183 174 179 179 180 183 184
294 292 296 291 279 280 269 263 275 277 280 283 293 288 291 280 275 263 247 217 181 179 177 175 185 180 182 175 173 169 173 174 186 184 181 188 189 194
291 292 294 281 274 274 267 266 267 282 272 282 284 286 276 266 267 252 237 222 192 173 186 159 178 173 171 176 189 196 187 185 183 183 180 188 194 199
287 290 286 285 277 275 264 265 269 271 278 284 285 278 273 258 245 236 230 200 196 175 183 157 170 165 162 165 178 170 169 172 175 174 181 192 195 194
289 290 286 284 276 271 267 273 262 265 284 284 273 271 256 245 231 214 213 196 178 171 175 168 169 169 168 163 168 191 173 179 177 179 192 194 195 197
283 282 282 276 276 269 272 265 256 280 282 272 267 267 249 242 219 204 212 199 184 168 176 167 168 168 154 167 172 172 173 178 183 188 191 194 202 194
285 275 273 268 256 263 264 258 258 272 271 256 265 245 231 194 180 210 216 211 191 175 180 184 173 170 162 164 174 177 178 176 181 189 194 198 204 200
286 277 281 276 252 248 253 256 251 259 244 241 246 228 205 173 186 201 204 203 203 205 195 193 181 185 179 171 171 180 183 187 194 192 195 199 203 200
274 277 291 274 253 233 241 241 245 246 229 225 223 201 185 172 180 194 202 206 207 209 196 192 201 194 196 188 184 185 185 196 201 204 205 205 202 198
270 277 276 263 245 231 232 233 239 229 226 221 210 178 170 177 186 192 196 200 200 188 193 198 204 206 200 213 213 202 200 199 206 210 209 207 208 208
272 263 270 254 243 233 215 229 226 211 210 206 205 183 178 183 189 189 194 195 196 185 186 197 204 214 217 215 205 212 202 211 214 207 206 206 209 211
255 253 255 257 247 234 224 228 213 211 210 208 207 195 187 186 189 190 191 192 192 191 188 188 182 183 193 201 226 220 209 210 205 205 207 207 208 213
244 242 255 249 238 232 227 227 216 211 210 206 208 204 199 193 194 196 199 195 194 197 195 191 189 192 191 194 194 199 217 207 205 205 210 212 214 217
229 237 245 245 232 219 215 219 219 219 218 209 206 210 208 204 200 202 202 202 204 204 199 196 195 198 199 196 193 195 187 210 210 211 209 212 217 221
249 228 244 243 228 224 214 217 212 217 219 212 207 209 212 212 210 209 207 209 207 204 202 201 203 203 201 205 213 199 201 200 213 224 213 213 212 213
244 242 245 243 235 225 219 212 206 207 214 216 217 215 214 213 214 216 214 211 213 215 213 209 200 199 203 208 218 211 204 202 196 212 219 235 225 215
261 246 250 247 238 234 220 214 206 204 209 215 218 221 217 215 216 218 219 220 220 221 219 213 209 204 204 208 217 218 215 208 199 197 203 213 223 228
Wind_Speed_850mb
47 50 50 49 46 55 59 60 59 54 62 54 55 49 46 45 41 39 39 36 41 40 46 58 72 81 65 47 71 59 57 52 43 32 36 45 48 49
58 54 52 51 51 53 56 61 56 53 63 59 55 49 40 42 39 45 43 40 38 41 36 54 85 62 70 70 71 64 64 55 46 41 49 44 46 40
57 53 52 54 56 56 59 55 55 54 59 61 58 38 41 36 44 43 50 51 48 44 42 51 91 82 64 70 82 75 55 48 40 45 31 43 45 44
55 56 60 60 56 52 53 54 51 58 52 52 50 51 40 43 43 48 45 43 41 40 45 47 70 94 77 85 79 73 63 49 54 49 45 39 42 58
58 58 59 56 56 53 42 49 54 58 51 38 39 35 48 52 52 51 47 40 42 34 30 42 71 77 93 90 87 74 63 55 57 56 56 50 58 60
55 57 58 59 51 44 41 48 42 36 36 37 42 50 54 52 50 42 36 45 34 35 33 68 75 77 71 70 69 64 67 66 56 62 57 59 62 61
51 46 41 38 34 35 37 33 37 42 30 38 44 47 52 49 37 33 35 41 51 56 82 73 69 68 56 61 56 69 64 65 62 65 57 52 56 51
43 37 37 34 30 35 34 35 36 34 39 39 46 48 46 31 27 26 42 50 58 71 79 69 68 53 51 59 68 74 74 55 59 63 53 49 52 48
40 41 42 29 29 30 33 37 35 41 36 39 44 43 31 26 22 26 42 56 63 68 69 70 66 64 62 63 58 75 78 64 61 58 51 47 51 49
40 32 32 29 27 28 34 42 40 36 32 37 40 31 31 28 21 23 48 68 67 65 74 73 66 74 70 60 57 56 63 69 65 49 37 45 49 46
37 35 31 32 26 26 31 35 35 29 34 34 24 27 26 27 27 30 55 71 70 70 72 87 71 69 57 63 54 48 50 50 43 35 35 47 48 46
37 37 36 29 25 26 26 26 27 27 30 19 20 23 23 24 23 26 48 73 77 66 67 76 78 75 59 61 61 61 58 48 39 38 47 50 50 48
33 29 30 28 30 30 29 30 30 30 24 16 17 17 16 16 20 32 46 70 76 64 78 81 85 76 54 71 64 63 62 58 49 46 47 45 44 43
27 23 24 26 25 29 31 32 33 28 20 17 15 15 17 20 28 38 54 64 69 65 72 75 88 80 75 80 71 64 61 53 53 56 54 51 45 45
24 25 33 28 21 23 25 31 27 23 21 20 17 16 21 26 32 37 50 55 57 58 68 73 70 78 72 77 80 74 67 60 60 61 60 58 57 58
24 28 31 24 21 23 24 27 25 20 20 21 19 22 27 33 38 39 49 50 51 45 57 59 57 61 67 51 58 76 75 66 72 69 63 58 56 56
23 21 20 17 19 26 33 29 28 25 23 24 24 31 39 46 41 40 42 44 46 49 49 48 40 34 39 45 45 57 79 77 65 76 67 63 61 61
17 14 15 15 15 22 33 31 32 26 25 27 30 36 45 53 54 49 43 45 48 52 51 49 44 42 37 35 30 45 65 70 62 65 67 64 66 66
10 11 13 15 16 19 28 30 31 27 21 26 34 40 47 53 62 59 52 51 48 46 47 53 58 57 54 50 43 34 34 55 57 53 67 64 65 64
13 12 13 14 16 20 23 28 30 28 28 28 33 41 48 52 61 64 65 59 52 48 50 55 64 66 62 56 52 48 40 35 52 55 58 63 57 49
7 13 13 13 17 19 24 27 30 31 30 31 32 37 47 53 59 64 65 64 56 53 56 58 58 59 53 40 37 42 41 36 28 40 47 52 57 55
11 12 11 12 14 15 18 23 30 35 32 32 29 32 40 49 59 65 67 71 66 59 54 55 52 57 62 53 44 36 43 39 33 25 28 30 45 58
14 12 13 13 12 15 19 22 26 32 33 32 31 30 35 43 50 58 66 70 71 66 61 55 58 59 64 59 52 44 43 47 44 40 36 31 24 25
Wind_Direction_850mb
291 296 300 299 291 279 270 283 278 290 291 292 288 282 275 276 271 291 290 278 271 265 252 246 229 228 228 191 195 198 184 180 176 173 183 178 167 165
296 300 299 298 289 278 275 283 279 276 282 287 286 282 274 262 276 290 290 285 279 257 251 244 231 236 199 190 194 192 185 175 162 164 169 174 169 168
289 290 287 284 284 282 285 287 279 279 276 278 276 280 270 293 291 274 272 276 269 256 252 234 229 213 194 198 193 187 183 191 187 182 190 187 202 194
283 282 284 279 281 283 289 295 279 285 281 266 265 283 288 295 289 285 279 271 267 255 243 230 229 205 194 194 183 187 180 178 177 170 175 172 169 161
284 282 279 282 287 290 287 290 286 284 276 282 296 282 289 293 291 290 284 271 264 257 238 225 215 195 185 188 184 183 187 184 174 171 168 167 169 163
282 281 283 288 288 283 279 279 279 267 270 289 288 292 289 294 299 291 272 276 258 256 239 211 177 173 170 174 189 193 184 175 175 177 177 174 175 174
287 293 288 290 287 285 278 274 260 276 279 279 287 293 293 295 286 280 263 258 239 211 177 170 176 178 193 203 187 178 177 183 174 179 179 180 183 184
294 292 296 291 279 280 269 263 275 277 280 283 293 288 291 280 275 263 247 217 181 179 177 175 185 180 182 175 173 169 173 174 186 184 181 188 189 194
291 292 294 281 274 274 267 266 267 282 272 282 284 286 276 266 267 252 237 222 192 173 186 159 178 173 171 176 189 196 187 185 183 183 180 188 194 199
287 290 286 285 277 275 264 265 269 271 278 284 285 278 273 258 245 236 230 200 196 175 183 157 170 165 162 165 178 170 169 172 175 174 181 192 195 194
289 290 286 284 276 271 267 273 262 265 284 284 273 271 256 245 231 214 213 196 178 171 175 168 169 169 168 163 168 191 173 179 177 179 192 194 195 197
283 282 282 276 276 269 272 265 256 280 282 272 267 267 249 242 219 204 212 199 184 168 176 167 168 168 154 167 172 172 173 178 183 188 191 194 202 194
285 275 273 268 256 263 264 258 258 272 271 256 265 245 231 194 180 210 216 211 191 175 180 184 173 170 162 164 174 177 178 176 181 189 194 198 204 200
286 277 281 276 252 248 253 256 251 259 244 241 246 228 205 173 186 201 204 203 203 205 195 193 181 185 179 171 171 180 183 187 194 192 195 199 203 200
274 277 291 274 253 233 241 241 245 246 229 225 223 201 185 172 180 194 202 206 207 209 196 192 201 194 196 188 184 185 185 196 201 204 205 205 202 198
270 277 276 263 245 231 232 233 239 229 226 221 210 178 170 177 186 192 196 200 200 188 193 198 204 206 200 213 213 202 200 199 206 210 209 207 208 208
272 263 270 254 243 233 215 229 226 211 210 206 205 183 178 183 189 189 194 195 196 185 186 197 204 214 217 215 205 212 202 211 214 207 206 206 209 211
255 253 255 257 247 234 224 228 213 211 210 208 207 195 187 186 189 190 191 192 192 191 188 188 182 183 193 201 226 220 209 210 205 205 207 207 208 213
244 242 255 249 238 232 227 227 216 211 210 206 208 204 199 193 194 196 199 195 194 197 195 191 189 192 191 194 194 199 217 207 205 205 210 212 214 217
229 237 245 245 232 219 215 219 219 219 218 209 206 210 208 204 200 202 202 202 204 204 199 196 195 198 199 196 193 195 187 210 210 211 209 212 217 221
249 228 244 243 228 224 214 217 212 217 219 212 207 209 212 212 210 209 207 209 207 204 202 201 203 203 201 205 213 199 201 200 213 224 213 213 212 213
244 242 245 243 235 225 219 212 206 207 214 216 217 215 214 213 214 216 214 211 213 215 213 209 200 199 203 208 218 211 204 202 196 212 219 235 225 215
261 246 250 247 238 234 220 214 206 204 209 215 218 221 217 215 216 218 219 220 220 221 219 213 209 204 204 208 217 218 215 208 199 197 203 213 223 228